Miscellaneous Local Product
Issued by NWS Hastings, NE

Home | Current Version | Previous Version | Graphics & Text | Print | Product List | Glossary On
Versions: 1 2 3 4 5 6 7 8 9 10 11 12 13 14 15 16 17 18 19 20 21 22 23 24 25 26 27 28 29 30 31 32 33 34 35 36 37 38 39 40 41 42 43 44 45 46 47 48 49 50
000
AXUS43 KGID 300302
MISGRI

GID CWA HOURLY WEATHER ROUNDUP
NATIONAL WEATHER SERVICE HASTINGS NE
1000 PM CDT WED JUL 29 2015

NOTE: "FAIR" INDICATES FEW OR NO CLOUDS BELOW 12,000 FEET WITH NO
SIGNIFICANT WEATHER AND/OR OBSTRUCTIONS TO VISIBILITY.

...SOUTH CENTRAL NEBRASKA...

CITY           SKY/WX    TMP DP  RH WIND       PRES   REMARKS
GRAND ISLAND   CLEAR     68  58  70 SW6       30.20R
HASTINGS       CLEAR     72  56  57 CALM      30.21R
KEARNEY        CLEAR     68  55  64 SE3       30.22R
ORD            CLEAR     65  56  72 SW7       30.17R
YORK           CLEAR     66  64  94 CALM      30.18S
AURORA         CLEAR     67  62  84 SW6       30.20R
LEXINGTON      CLEAR     69  57  65 SE5       30.22R
HOLDREGE       CLEAR     65  57  76 E6        30.22R
HEBRON         CLEAR     67  60  80 CALM      30.18S

...NEBRASKA PANHANDLE...

CITY           SKY/WX    TMP DP  RH WIND       PRES   REMARKS
CHADRON        CLEAR     68  51  54 NE6       30.18R
ALLIANCE       CLEAR     66  51  58 S9        30.20R
SCOTTSBLUFF    PTCLDY    71  58  63 MISG      30.20R
SIDNEY         PTCLDY    70  43  37 S12       30.26R

...WESTERN AND NORTH CENTRAL NEBRASKA...

CITY           SKY/WX    TMP DP  RH WIND       PRES   REMARKS
VALENTINE      MOCLDY    76  49  38 E10       30.16R
AINSWORTH      CLEAR     67  55  65 S7        30.17S
ONEILL         CLEAR     74  56  53 S5        30.15S
BROKEN BOW     CLEAR     64  59  83 CALM      30.21R
IMPERIAL       CLEAR     70  45  40 S9        30.25R
NORTH PLATTE   CLEAR     62  57  83 SE6       30.22R
MCCOOK         CLEAR     69  56  62 SE3       30.23R

...EASTERN NEBRASKA...

CITY           SKY/WX    TMP DP  RH WIND       PRES   REMARKS
NORFOLK        CLEAR     69  59  70 S10       30.15R
SO SIOUX CITY  CLEAR     70  62  76 SW6       30.11R
TEKAMAH        CLEAR     69  65  86 SW6       30.13R
COLUMBUS       CLEAR     73  57  56 SW7       30.17R
ALBION         CLEAR     70  55  60 SW3       30.16S
OMAHA EPPLEY   CLEAR     73  61  65 SE5       30.14R
OFFUTT AFB     CLEAR     68  63  84 S2        30.14R
MILLARD        CLEAR     71  62  73 CALM      30.15R
LINCOLN        CLEAR     73  59  61 S3        30.17R
NEBRASKA CITY  CLEAR     73  58  60 CALM      30.16S
BEATRICE       CLEAR     73  64  73 CALM      30.17R
FALLS CITY     CLEAR     71  66  84 CALM      30.15S

...NORTHERN KANSAS...

CITY           SKY/WX    TMP DP  RH WIND       PRES   REMARKS
GOODLAND       CLEAR     63  51  65 SE6       30.27R
HILL CITY      CLEAR     70  58  65 E3        30.21R
NORTON         CLEAR     68  54  60 SE3       30.21R
PHILLIPSBURG   CLEAR     72  61  68 CALM      30.20R
SMITH CENTER   CLEAR     68  57  68 E7        30.20S
HAYS           CLEAR     72  55  56 E9        30.19S
RUSSELL        CLEAR     70  60  70 E6        30.18R
CONCORDIA      CLEAR     70  63  78 SE3       30.18R
SALINA         CLEAR     78  65  63 NE6       30.17R
TOPEKA         CLEAR     74  69  85 CALM      30.16R



USA.gov is the U.S. government's official web portal to all federal, state and local government web resources and services.